Starlink 3268

operational
NORAD ID: 50190 Int'l Des: 2021-125 Owner: SPXS Country: US Constellation: starlink
LEOCIRCULAR

Über Starlink 3268

Beschreibung wird geladen...

Live-Position

3D-Globus wird geladen...

Nächste Überflüge

Höhenverlauf

Altitude vs Time

uPlot chart will show altitude changes over time

Zweizeiliger Elementsatz

1 50190U 21125AL 25353.95056750 .00005543 00000-0 36574-3 0 9996
2 50190 53.2166 237.0825 0002996 96.9499 263.1834 15.08877361224695
Epoch: 19. Dez. 2025 • Age: 7 hours

Aktueller Status

Höhe 542.9 km
Geschwindigkeit 7.60 km/s
Subsatellitenpunkt 46.53°N, 116.59°E
Startdatum 18. Dez. 2021
Alter 4 years
Typ internet

Technische Details

Klassifizierung Payload
Masse 290.00 kg
Trockenmasse 270.00 kg
Gesamtmasse 290.00 kg
Länge 0.20 m
Durchmesser 2.80 m
Spannweite 9.00 m
Form Box + pan
Hersteller SPXS
Bus-Typ Starlink
Phasenstatus In Orbit
Besitzer/Staat SPXS/US

Große Konstellationen

Loading constellations...